Weather History for Muncie, IN

Change the Weather History Date:

Sunday, April 15, 2012

  Actual Average Record
Temperature  
Mean Temperature 68 °F 51 °F  
Max Temperature 78 °F 62 °F 82 °F (1976)
Min Temperature 58 °F 41 °F 25 °F (2014)
Degree Days  
Heating Degree Days 0 14  
Month to date heating degree days 176 251  
Since 1 July heating degree days 4427 5421  
Cooling Degree Days 3 0  
Month to date cooling degree days 4 0  
Year to date cooling degree days 41 1  
Growing Degree Days 16 (Base 50)    
Moisture  
Dew Point 54 °F    
Average Humidity 68    
Maximum Humidity 93    
Minimum Humidity 43    
Precipitation  
Precipitation 0.00 in 0.12 in 0.89 in (1987)
Month to date precipitation 0.43 1.85  
Year to date precipitation 7.59 9.34  
Sea Level Pressure  
Sea Level Pressure 29.85 in    
Wind  
Wind Speed 16 mph (SSW)    
Max Wind Speed 28 mph    
Max Gust Speed 38 mph    
Visibility 10 miles    
Events      
T = Trace of Precipitation, MM = Missing Value Source: NWS Daily Summary

Daily Weather History Graph

Daily Weather History Graph

Search for Another Location

Airport:

Trip Planner

Search our weather history database for the weather conditions in past years. The results will help you decide how hot, cold, wet, or windy it might be!

Date:

Astronomy

Apr. 15, 2012 Rise Set
Actual Time 7:02 AM EDT 8:20 PM EDT
Civil Twilight 6:34 AM EDT 8:49 PM EDT
Nautical Twilight 6:00 AM EDT 9:23 PM EDT
Astronomical Twilight 5:25 AM EDT 9:58 PM EDT
Moon 4:00 AM EDT (4/15) 3:14 PM EDT (4/15)
Length of Visible Light 14h 14m
Length of Day
13h 18m
Waning Crescent, 28% of the Moon is Illuminated
Apr 15
Waning Crescent
Apr 21
New
Apr 29
First Quarter
May 5
Full
May 12
Last Quarter

Hourly Weather History & Observations

Time (EDT) Temp. Dew Point Humidity Pressure Visibility Wind Dir Wind Speed Gust Speed Precip Events Conditions
12:53 AM 57.9 °F 55.0 °F 90% 29.92 in 6.0 mi South 4.6 mph - N/A   Overcast
1:53 AM 57.9 °F 54.0 °F 87% 29.89 in 7.0 mi South 9.2 mph - N/A   Scattered Clouds
2:53 AM 60.1 °F 53.1 °F 78% 29.86 in 10.0 mi SSW 10.4 mph - N/A   Partly Cloudy
3:53 AM 61.0 °F 53.1 °F 75% 29.84 in 10.0 mi SSW 10.4 mph 19.6 mph N/A   Clear
4:53 AM 62.1 °F 53.1 °F 72% 29.84 in 10.0 mi SSW 12.7 mph 21.9 mph N/A   Clear
5:53 AM 63.0 °F 53.1 °F 70% 29.83 in 10.0 mi SSW 15.0 mph 25.3 mph N/A   Clear
6:53 AM 63.0 °F 54.0 °F 72% 29.85 in 10.0 mi SSW 12.7 mph 28.8 mph N/A   Clear
7:53 AM 64.0 °F 54.0 °F 70% 29.88 in 10.0 mi SSW 16.1 mph 25.3 mph N/A   Clear
8:53 AM 64.9 °F 55.0 °F 70% 29.88 in 10.0 mi SW 17.3 mph 23.0 mph N/A   Clear
9:53 AM 68.0 °F 55.9 °F 65% 29.87 in 10.0 mi SSW 23.0 mph 34.5 mph N/A   Clear
10:53 AM 70.0 °F 55.9 °F 61% 29.87 in 10.0 mi SW 19.6 mph 32.2 mph N/A   Clear
11:53 AM 72.0 °F 55.0 °F 55% 29.88 in 10.0 mi SW 24.2 mph 35.7 mph N/A   Clear
12:53 PM 73.9 °F 54.0 °F 50% 29.87 in 10.0 mi SSW 21.9 mph 34.5 mph N/A   Clear
1:53 PM 75.9 °F 53.1 °F 45% 29.85 in 10.0 mi SSW 23.0 mph 34.5 mph N/A   Clear
2:53 PM 75.9 °F 53.1 °F 45% 29.86 in 10.0 mi SSW 20.7 mph 34.5 mph N/A   Clear
3:53 PM 75.9 °F 52.0 °F 43% 29.85 in 10.0 mi SSW 24.2 mph 34.5 mph N/A   Clear
4:53 PM 75.0 °F 53.1 °F 46% 29.85 in 10.0 mi SSW 15.0 mph 32.2 mph N/A   Scattered Clouds
5:53 PM 75.0 °F 54.0 °F 48% 29.84 in 10.0 mi SSW 12.7 mph 21.9 mph N/A   Mostly Cloudy
6:53 PM 75.0 °F 54.0 °F 48% 29.83 in 10.0 mi SSW 12.7 mph 25.3 mph N/A   Clear
7:53 PM 73.0 °F 54.0 °F 51% 29.82 in 10.0 mi SSW 13.8 mph 20.7 mph N/A   Clear
8:53 PM 71.1 °F 53.1 °F 53% 29.82 in 10.0 mi South 9.2 mph - N/A   Clear
9:53 PM 69.1 °F 54.0 °F 58% 29.82 in 10.0 mi South 11.5 mph - N/A   Clear
10:53 PM 69.1 °F 54.0 °F 58% 29.82 in 10.0 mi South 11.5 mph 23.0 mph N/A   Clear